GW3945 Weather Reports


Display with metric or nautical units.
time (UTC)temp
F
wind
direction
speed
MPH
gust
MPH
rain 1hr
in
rain 24hr
in
rain mn
in
humidity
%
barometer
mb
20260506135135 51 156 0.0 0.0 0.00 0.15 0.15 99 1009.8
20260506134632 51 199 0.0 0.0 0.00 0.15 0.15 99 1009.8
20260506134127 51 273 1.0 2.0 0.00 0.15 0.15 99 1009.7
20260506133625 51 241 1.0 2.0 0.00 0.15 0.15 99 1009.7
20260506133122 51 185 1.0 1.0 0.07 0.15 0.15 99 1009.7
20260506132619 51 177 0.0 0.0 0.07 0.15 0.15 99 1009.7
20260506132116 51 182 0.0 0.0 0.00 0.14 0.14 99 1009.4
20260506131614 51 186 0.0 0.0 0.00 0.14 0.14 99 1009.5
20260506131110 51 223 0.0 0.0 0.00 0.14 0.14 99 1009.8
20260506130607 51 190 0.0 0.0 0.05 0.14 0.14 99 1009.9
20260506130105 51 173 0.0 0.0 0.05 0.14 0.14 99 1010.1
20260506125603 51 183 0.0 0.0 0.00 0.13 0.13 99 1010.4
20260506125100 51 175 0.0 0.0 0.07 0.13 0.13 99 1010.2
20260506124557 51 184 0.0 0.0 0.07 0.13 0.13 99 1010.2
20260506124055 51 186 0.0 0.0 0.00 0.12 0.12 99 1009.9
20260506123552 51 220 0.0 0.0 0.00 0.12 0.12 99 1009.9
20260506123051 51 175 0.0 0.0 0.00 0.12 0.12 99 1009.8
20260506122547 51 179 0.0 0.0 0.00 0.12 0.12 99 1009.9
20260506122046 51 182 0.0 0.0 0.00 0.12 0.12 99 1009.6
20260506121542 51 169 0.0 0.0 0.00 0.12 0.12 99 1009.4
20260506121038 51 306 0.0 1.0 0.00 0.12 0.12 99 1009.6
20260506120537 51 171 0.0 0.0 0.00 0.12 0.12 99 1009.4
20260506120034 51 185 0.0 0.0 0.00 0.12 0.12 99 1009.5
20260506115532 51 178 0.0 0.0 0.00 0.12 0.12 99 1009.4
20260506115030 51 176 0.0 0.0 0.05 0.12 0.12 99 1009.0
20260506114527 51 169 0.0 0.0 0.05 0.12 0.12 98 1009.0
20260506114026 51 225 0.0 0.0 0.00 0.11 0.11 98 1009.0
20260506113523 51 185 0.0 1.0 0.00 0.11 0.11 98 1008.9
20260506113020 52 259 2.0 2.0 0.07 0.11 0.11 98 1008.5
20260506112516 52 242 0.0 1.0 0.07 0.11 0.11 98 1008.3
20260506112014 52 177 0.0 1.0 0.07 0.11 0.11 98 1008.4
20260506111512 52 184 0.0 0.0 0.07 0.10 0.10 98 1008.1
20260506111009 52 179 1.0 1.0 0.12 0.10 0.10 98 1008.5
20260506110507 52 192 0.0 0.0 0.00 0.08 0.08 98 1008.2
20260506110004 52 199 0.0 0.0 0.00 0.08 0.08 98 1007.8
20260506105459 52 190 0.0 0.0 0.00 0.08 0.08 98 1007.7
20260506104957 52 172 0.0 0.0 0.00 0.08 0.08 98 1007.5
20260506104455 52 171 0.0 0.0 0.00 0.08 0.08 98 1008.0
20260506103953 52 223 0.0 0.0 0.00 0.08 0.08 98 1007.9
20260506103449 52 178 0.0 0.0 0.00 0.08 0.08 98 1007.7
20260506102946 52 178 0.0 0.0 0.00 0.08 0.08 98 1008.0
20260506102444 52 182 0.0 0.0 0.00 0.08 0.08 98 1008.2
20260506101941 52 174 0.0 0.0 0.00 0.08 0.08 98 1007.9
20260506101438 52 177 0.0 0.0 0.00 0.08 0.08 98 1007.6
20260506100935 52 178 0.0 0.0 0.07 0.08 0.08 98 1007.8
20260506100433 52 169 0.0 0.0 0.07 0.08 0.08 98 1007.6
20260506095931 52 171 0.0 0.0 0.00 0.07 0.07 98 1007.5
20260506095429 52 215 0.0 0.0 0.00 0.07 0.07 98 1007.4
20260506094925 52 175 0.0 1.0 0.00 0.07 0.07 98 1007.4
20260506094424 52 189 0.0 0.0 0.00 0.07 0.07 98 1007.6
20260506093921 52 176 0.0 0.0 0.00 0.07 0.07 98 1007.4
20260506093419 53 176 0.0 0.0 0.05 0.07 0.07 97 1007.2
20260506092917 53 160 0.0 0.0 0.05 0.07 0.07 98 1007.5
20260506092415 53 196 0.0 1.0 0.00 0.06 0.06 97 1007.5
20260506091911 53 172 0.0 0.0 0.07 0.06 0.06 97 1007.7
20260506091409 53 183 0.0 0.0 0.07 0.06 0.06 97 1007.6
20260506090906 53 249 0.0 0.0 0.05 0.05 0.05 97 1006.8
20260506090403 53 163 0.0 0.0 0.12 0.05 0.05 97 1007.4
20260506085900 54 260 2.0 2.0 0.07 0.04 0.04 97 1007.6
20260506085356 54 159 0.0 0.0 0.00 0.03 0.03 97 1007.5
20260506084853 55 267 1.0 2.0 0.05 0.03 0.03 97 1007.4
20260506084350 55 296 2.0 2.0 0.05 0.03 0.03 97 1007.4
20260506083846 56 185 0.0 1.0 0.00 0.02 0.02 97 1007.1
20260506083344 56 188 0.0 0.0 0.00 0.02 0.02 97 1006.7
20260506082841 55 177 0.0 0.0 0.00 0.02 0.02 96 1006.6
20260506082338 56 137 1.0 1.0 0.00 0.02 0.02 96 1006.7
20260506081833 56 243 0.0 1.0 0.00 0.02 0.02 96 1006.4
20260506081332 56 239 3.0 3.0 0.00 0.02 0.02 96 1006.5
20260506080829 58 301 2.0 3.0 0.12 0.02 0.02 96 1006.0
20260506080325 59 241 3.0 5.0 0.12 0.02 0.02 96 1005.8
20260506073310 64 188 0.0 0.0 0.00 0.00 0.00 96 1005.2
20260506072806 64 183 1.0 2.0 0.00 0.00 0.00 96 1005.3
20260506072305 64 186 0.0 0.0 0.00 0.00 0.00 95 1005.2
20260506071801 65 187 0.0 0.0 0.00 0.00 0.00 95 1005.2
20260506071300 65 178 0.0 0.0 0.00 0.00 0.00 94 1005.1
20260506070756 65 213 0.0 0.0 0.00 0.00 0.00 93 1005.2
20260506070253 65 270 0.0 0.0 0.00 0.00 0.00 92 1005.1
20260506062230 68 159 1.0 2.0 0.00 0.00 0.00 82 1004.5
20260506061726 67 192 2.0 2.0 0.00 0.00 0.00 84 1004.3
20260506061224 67 180 3.0 3.0 0.00 0.00 0.00 84 1004.7
20260506060722 67 192 2.0 2.0 0.00 0.00 0.00 85 1004.9
20260506060219 67 160 0.0 0.0 0.00 0.00 0.00 86 1004.7
20260506051151 68 171 2.0 2.0 0.00 0.00 0.00 79 1005.4
20260506050649 68 177 2.0 2.0 0.00 0.00 0.00 80 1005.5
20260506050146 68 164 3.0 5.0 0.00 0.00 0.00 79 1005.8
20260506044637 67 189 1.0 1.0 0.00 0.02 0.02 83 1005.5
20260506044134 68 151 1.0 2.0 0.00 0.02 0.02 84 1005.5
20260506043631 68 173 1.0 2.0 0.00 0.02 0.02 81 1005.7
20260506043129 67 207 2.0 3.0 0.00 0.02 0.02 82 1005.7
20260506042627 66 163 0.0 0.0 0.00 0.02 0.02 83 1006.0
20260506042125 66 182 3.0 5.0 0.00 0.02 0.02 82 1006.1
20260506041624 65 164 1.0 2.0 0.00 0.02 0.02 85 1005.7
20260506041120 66 162 1.0 2.0 0.00 0.02 0.02 85 1005.8
20260506040618 65 180 0.0 0.0 0.00 0.02 0.02 87 1005.8
20260506040114 65 167 2.0 2.0 0.00 0.02 0.02 88 1006.2
20260506035611 65 177 0.0 0.0 0.00 0.02 0.02 87 1005.9
20260506035108 65 175 1.0 1.0 0.00 0.02 0.02 87 1005.8
20260506034605 65 170 2.0 2.0 0.00 0.02 0.02 86 1006.1
20260506034102 64 176 0.0 0.0 0.00 0.02 0.02 88 1006.1
20260506033559 64 176 0.0 0.0 0.00 0.02 0.02 89 1006.2
20260506033056 64 141 0.0 0.0 0.00 0.02 0.02 89 1006.2
20260506032553 64 163 0.0 0.0 0.00 0.02 0.02 89 1006.1
20260506032050 64 169 0.0 0.0 0.00 0.02 0.02 89 1006.2
20260506031548 64 172 0.0 0.0 0.00 0.02 0.02 89 1006.2
20260506031044 64 174 0.0 0.0 0.00 0.02 0.02 89 1006.5
20260506030543 64 175 2.0 2.0 0.00 0.02 0.02 89 1006.4
20260506030040 64 169 0.0 0.0 0.00 0.02 0.02 90 1006.4
20260506025537 63 171 1.0 1.0 0.00 0.02 0.02 91 1006.4
20260506025032 63 183 0.0 0.0 0.00 0.02 0.02 91 1006.4
20260506024530 63 185 0.0 0.0 0.00 0.02 0.02 92 1006.2
20260506024026 63 173 0.0 0.0 0.00 0.02 0.02 92 1006.0
20260506023522 62 171 0.0 0.0 0.00 0.02 0.02 92 1006.2
20260506023020 62 178 0.0 0.0 0.00 0.02 0.02 93 1006.2
20260506022517 62 183 0.0 0.0 0.00 0.02 0.02 93 1006.3
20260506022015 62 176 0.0 0.0 0.00 0.02 0.02 93 1006.3
20260506021512 62 175 0.0 0.0 0.00 0.02 0.02 93 1006.3
20260506021009 62 177 1.0 1.0 0.00 0.02 0.02 94 1006.0
20260506020507 61 177 0.0 0.0 0.00 0.02 0.02 95 1006.1
20260506020004 61 178 0.0 0.0 0.00 0.02 0.02 95 1006.3
20260506015501 61 164 0.0 0.0 0.00 0.02 0.02 95 1005.9
20260506014958 61 165 0.0 0.0 0.00 0.02 0.02 95 1006.1
20260506014455 61 164 0.0 0.0 0.00 0.02 0.02 95 1005.9
20260506013951 61 165 0.0 0.0 0.00 0.02 0.02 95 1005.9
20260506013449 61 177 0.0 0.0 0.00 0.02 0.02 95 1006.1
20260506012945 61 177 0.0 0.0 0.00 0.02 0.02 95 1006.2
20260506012442 60 177 0.0 0.0 0.00 0.02 0.02 96 1006.3
20260506011939 60 175 0.0 0.0 0.00 0.02 0.02 96 1006.4
20260506011436 60 175 0.0 0.0 0.00 0.02 0.02 96 1006.4
20260506010933 60 175 0.0 0.0 0.00 0.02 0.02 97 1006.7
20260506010432 60 171 0.0 0.0 0.00 0.02 0.02 97 1006.6
20260506005927 60 171 0.0 0.0 0.00 0.02 0.02 97 1006.4
20260506005426 60 168 0.0 0.0 0.00 0.02 0.02 97 1006.5
20260506004920 60 166 0.0 0.0 0.00 0.02 0.02 97 1006.8
20260506004419 60 179 0.0 0.0 0.00 0.02 0.02 97 1006.7
20260506003914 60 183 0.0 0.0 0.00 0.02 0.02 97 1006.9
20260506003411 60 182 0.0 0.0 0.07 0.02 0.02 97 1006.9
20260506002908 60 183 0.0 0.0 0.07 0.02 0.02 96 1006.8
20260506002404 60 162 0.0 0.0 0.00 0.01 0.01 96 1006.8
20260506001859 60 179 0.0 0.0 0.00 0.01 0.01 96 1006.8
20260506001356 61 182 0.0 0.0 0.00 0.01 0.01 96 1006.8
20260506000853 60 196 0.0 0.0 0.00 0.01 0.01 95 1006.6
20260506000354 60 305 0.0 1.0 0.00 0.01 0.01 95 1006.7
20260505235848 60 187 0.0 0.0 0.00 0.01 0.01 94 1006.6
20260505235345 60 163 0.0 0.0 0.00 0.01 0.01 94 1006.5
20260505234842 60 162 0.0 0.0 0.00 0.01 0.01 95 1006.3
20260505234340 60 163 0.0 0.0 0.00 0.01 0.01 93 1006.4
20260505233837 60 167 0.0 0.0 0.00 0.01 0.01 91 1006.4
20260505233335 61 140 0.0 0.0 0.00 0.01 0.01 89 1006.7
20260505232832 61 160 0.0 0.0 0.00 0.01 0.01 88 1006.7
20260505232330 61 159 0.0 0.0 0.05 0.01 0.01 87 1006.6
20260505231826 62 160 0.0 0.0 0.05 0.01 0.01 85 1006.6
20260505231324 64 153 0.0 0.0 0.00 0.00 0.00 82 1007.1
20260505230822 65 166 0.0 0.0 0.00 0.00 0.00 72 1007.3
20260505230318 65 169 0.0 0.0 0.00 0.00 0.00 71 1007.0
20260505225815 67 141 0.0 0.0 0.00 0.00 0.00 66 1007.1
20260505225313 68 172 0.0 0.0 0.00 0.00 0.00 61 1007.0
20260505224807 69 160 0.0 0.0 0.00 0.00 0.00 60 1007.0
20260505224306 69 176 0.0 0.0 0.00 0.00 0.00 59 1006.9
20260505223802 69 144 3.0 3.0 0.00 0.00 0.00 58 1007.0
20260505223259 70 167 0.0 0.0 0.00 0.00 0.00 56 1007.1
20260505222755 70 154 0.0 0.0 0.00 0.00 0.00 55 1007.2
20260505222251 70 165 3.0 3.0 0.00 0.00 0.00 54 1007.2
20260505221749 71 169 2.0 3.0 0.00 0.00 0.00 54 1007.1
20260505221245 71 195 1.0 2.0 0.00 0.00 0.00 52 1007.5
20260505220742 71 159 2.0 2.0 0.00 0.00 0.00 55 1006.9
20260505220239 71 136 1.0 2.0 0.00 0.00 0.00 54 1006.8
20260505215738 71 179 2.0 2.0 0.00 0.00 0.00 53 1006.8
20260505215235 71 171 3.0 3.0 0.00 0.00 0.00 55 1006.9
20260505214733 71 177 0.0 1.0 0.00 0.00 0.00 54 1007.2
20260505214229 71 152 1.0 2.0 0.00 0.00 0.00 52 1007.2
20260505213727 71 146 3.0 3.0 0.00 0.00 0.00 51 1007.4
20260505213224 71 175 0.0 0.0 0.00 0.00 0.00 55 1007.2
20260505212720 72 166 2.0 2.0 0.00 0.00 0.00 53 1007.4
20260505212218 72 158 2.0 3.0 0.00 0.00 0.00 52 1007.3
20260505211714 72 152 3.0 3.0 0.00 0.00 0.00 54 1007.2
20260505211212 73 166 4.0 6.0 0.00 0.00 0.00 52 1007.1
20260505210708 74 174 1.0 2.0 0.00 0.00 0.00 53 1006.8
20260505210205 74 178 3.0 3.0 0.00 0.00 0.00 51 1006.8
20260505205703 72 162 1.0 2.0 0.00 0.00 0.00 53 1006.7
20260505205201 72 163 4.0 6.0 0.00 0.00 0.00 52 1006.6
20260505204657 73 174 0.0 0.0 0.00 0.00 0.00 55 1006.8
20260505204155 73 153 0.0 0.0 0.00 0.00 0.00 54 1006.8
20260505203652 73 161 0.0 0.0 0.00 0.00 0.00 54 1006.9
20260505203148 72 159 0.0 0.0 0.00 0.00 0.00 58 1006.9
20260505202644 72 176 0.0 0.0 0.00 0.00 0.00 55 1006.8
20260505202140 72 170 0.0 0.0 0.00 0.00 0.00 54 1007.4
20260505201637 72 190 2.0 3.0 0.00 0.00 0.00 54 1007.5
20260505201135 72 181 2.0 2.0 0.00 0.00 0.00 57 1007.6
20260505200633 71 126 2.0 3.0 0.00 0.00 0.00 55 1007.6
20260505200129 71 171 3.0 3.0 0.00 0.00 0.00 55 1007.7
20260505195625 71 183 3.0 3.0 0.00 0.00 0.00 54 1007.8
20260505195123 71 149 2.0 3.0 0.00 0.00 0.00 56 1007.8
20260505194620 71 171 3.0 3.0 0.00 0.00 0.00 54 1007.9
20260505194116 71 170 1.0 1.0 0.00 0.00 0.00 53 1007.9
20260505193613 71 156 2.0 2.0 0.00 0.00 0.00 53 1008.0
20260505193110 71 170 0.0 1.0 0.00 0.00 0.00 53 1008.1
20260505192609 71 175 0.0 1.0 0.00 0.00 0.00 50 1008.3
20260505192106 71 136 3.0 5.0 0.00 0.00 0.00 51 1008.2
20260505191604 71 153 5.0 7.0 0.00 0.00 0.00 53 1008.6
20260505191101 71 160 3.0 3.0 0.00 0.00 0.00 53 1008.4
20260505190556 71 156 2.0 2.0 0.00 0.00 0.00 52 1008.5
20260505190052 71 164 3.0 3.0 0.00 0.00 0.00 52 1008.9
20260505185549 71 172 5.0 6.0 0.00 0.00 0.00 54 1009.2
20260505185045 71 155 1.0 2.0 0.00 0.00 0.00 56 1009.0
20260505184542 70 186 3.0 3.0 0.00 0.00 0.00 58 1008.6
20260505184039 70 167 2.0 2.0 0.00 0.00 0.00 61 1009.0
20260505183536 70 174 0.0 0.0 0.00 0.00 0.00 60 1008.6
20260505183033 69 163 2.0 3.0 0.00 0.00 0.00 61 1008.6
20260505182529 69 145 3.0 3.0 0.00 0.00 0.00 63 1008.5
20260505182026 69 163 1.0 2.0 0.00 0.00 0.00 63 1008.4
20260505181523 68 165 2.0 3.0 0.00 0.00 0.00 62 1008.6
20260505181020 69 172 2.0 2.0 0.00 0.00 0.00 61 1008.5
20260505180516 69 184 1.0 2.0 0.00 0.00 0.00 62 1008.9
20260505180015 69 162 2.0 5.0 0.00 0.00 0.00 66 1008.5
20260505175508 68 156 3.0 3.0 0.00 0.00 0.00 65 1009.0
20260505175006 68 180 2.0 3.0 0.00 0.00 0.00 63 1009.0
20260505174503 68 180 0.0 0.0 0.00 0.00 0.00 66 1008.6
20260505173959 68 171 2.0 3.0 0.00 0.00 0.00 63 1008.8
20260505173455 68 149 1.0 2.0 0.00 0.00 0.00 64 1008.9
20260505172952 68 152 0.0 0.0 0.00 0.00 0.00 66 1009.2
20260505172451 68 164 2.0 3.0 0.00 0.00 0.00 65 1009.2
20260505171950 68 169 3.0 3.0 0.00 0.00 0.00 66 1009.3
20260505171447 68 182 0.0 0.0 0.00 0.00 0.00 66 1009.5
20260505170944 68 181 0.0 0.0 0.00 0.00 0.00 66 1009.3
20260505170441 67 170 3.0 3.0 0.00 0.00 0.00 68 1009.5
20260505165936 67 199 2.0 3.0 0.00 0.00 0.00 68 1009.7
20260505165432 67 159 3.0 3.0 0.00 0.00 0.00 69 1009.8
20260505164927 67 176 0.0 0.0 0.00 0.00 0.00 68 1010.0
20260505164424 67 164 0.0 0.0 0.00 0.00 0.00 70 1010.0
20260505163922 67 171 0.0 0.0 0.00 0.00 0.00 67 1010.5
20260505163421 67 150 0.0 0.0 0.00 0.00 0.00 67 1010.3
20260505162920 67 180 1.0 3.0 0.00 0.00 0.00 69 1010.7
20260505162415 67 166 2.0 2.0 0.00 0.00 0.00 67 1010.7
20260505161912 67 173 0.0 0.0 0.00 0.00 0.00 69 1010.6
20260505161409 67 179 0.0 0.0 0.00 0.00 0.00 69 1010.7
20260505160907 67 153 0.0 0.0 0.00 0.00 0.00 65 1010.8
20260505160405 67 176 0.0 0.0 0.00 0.00 0.00 69 1010.9
20260505153343 67 164 0.0 0.0 0.00 0.00 0.00 71 1011.0
20260505152840 67 168 0.0 0.0 0.00 0.00 0.00 70 1010.9
20260505152332 67 175 0.0 0.0 0.00 0.00 0.00 69 1011.0
20260505151831 66 172 0.0 0.0 0.00 0.00 0.00 68 1011.1
20260505151328 66 173 0.0 0.0 0.00 0.00 0.00 69 1010.8
20260505150825 66 154 0.0 0.0 0.00 0.00 0.00 70 1010.6
20260505150322 66 182 2.0 3.0 0.00 0.00 0.00 70 1010.6
20260505140247 62 161 0.0 0.0 0.00 0.00 0.00 76 1010.5